#timestamp,LO_Frequency,Hit,StdDev 
1510660815.1,286047005.7,N
1510660835.8,286047002.4,N
1510660855.7,286046996.7,N
1510660875.5,286046991.9,N
1510660895.3,286046995.0,N
1510660915.2,286046995.8,N
1510660935.9,286046994.5,N
1510660955.7,286046991.7,N
1510660975.6,286046991.5,N
1510660995.4,286046988.2,N
1510661015.2,286046987.5,N
1510661035.0,286046985.8,N
1510661036.0,286046985.8,N
1510661055.8,286046988.4,N
1510661075.6,286046990.6,N
1510661095.4,286046993.2,N
1510661115.3,286046992.8,N
1510661135.1,286046991.9,N
1510661155.8,286046991.1,N
1510661175.7,286046987.6,N
1510661195.5,286046987.0,N
1510661215.3,286046985.4,N
1510661235.2,286046989.2,N
1510661255.9,286046987.6,N
1510661275.7,286046988.2,N
1510661295.6,286046987.0,N
1510661315.4,286046986.3,N
1510661335.2,286046987.8,N
1510661355.0,286046987.1,N
1510661355.9,286046987.1,N
1510661375.8,286046984.6,Y
1510661395.6,286046995.9,P
1510661415.4,286046995.1,N
1510661435.3,286047000.7,N
1510661455.1,286046999.9,N
1510661475.8,286046999.3,N
1510661495.7,286046999.4,N
1510661515.5,286046990.5,N
1510661535.3,286046991.8,N
1510661555.2,286046991.3,N
1510661575.9,286046991.0,N
1510661595.7,286046988.5,N
1510661615.6,286046993.0,N
1510661635.4,286046992.1,N
1510661655.2,286046990.2,N
1510661675.1,286046990.6,N
1510661676.0,286046990.6,N
1510661695.8,286046990.5,N
1510661715.6,286046987.2,Y
1510661735.5,286046992.7,P
1510661755.3,286046993.1,P
1510661775.1,286046993.3,P
1510661795.9,286046996.3,Y
1510661815.7,286046999.6,P
1510661835.5,286046999.0,N
1510661855.4,286046998.5,N
1510661875.2,286047001.0,N
1510661895.0,286046999.9,N
1510661895.9,286046999.9,N
1510661915.7,286047001.9,N
1510661935.6,286046998.6,N
1510661955.4,286046996.5,N
1510661975.2,286047000.7,N
1510661995.1,286047002.2,N
1510661996.0,286047002.2,N
1510662015.8,286047004.2,N
1510662035.6,286047005.5,N
1510662055.5,286047005.5,N
1510662075.3,286047004.8,N
1510662095.1,286047003.0,N
1510662115.9,286047002.0,N
1510662135.7,286047003.5,N
1510662155.5,286047001.4,N
1510662175.4,286047001.9,N
1510662195.2,286046999.7,N
1510662215.0,286046999.6,N
1510662215.9,286046999.6,N
1510662235.8,286047001.1,N
1510662255.6,286046998.6,N
1510662275.4,286047009.0,Y
1510662295.3,286047008.3,P
1510662315.1,286047009.9,N
1510662316.0,286047009.9,N
1510662335.8,286047008.2,N
1510662355.7,286047007.4,N
1510662375.5,286047005.7,N
1510662395.3,286047006.5,N
1510662415.2,286047008.7,Y
1510662435.9,286047001.8,P
1510662455.7,286047002.6,N
1510662475.6,286047000.8,N
1510662495.4,286047001.2,N
1510662515.2,286047003.2,N
1510662535.0,286047001.6,N
1510662535.9,286047001.6,N
1510662555.8,286047000.6,N
1510662575.6,286046998.1,N
1510662595.4,286047000.5,N
1510662615.3,286046996.8,N
1510662635.1,286046995.3,N
1510662655.9,286046995.0,N
1510662675.7,286046996.0,N
1510662695.5,286046994.0,N
1510662715.3,286046996.9,N
1510662735.2,286046994.9,N
1510662755.0,286046996.6,N
1510662755.9,286046996.6,N
1510662775.7,286047001.4,N
1510662795.6,286047002.2,N
1510662815.4,286047003.6,N
1510662835.2,286047004.4,N
1510662855.1,286047001.6,N
1510662856.0,286047001.6,N
1510662875.8,286047002.7,N
1510662895.6,286046999.8,N
1510662915.5,286047001.0,N
1510662935.3,286047000.3,N
1510662955.1,286047004.2,N
1510662975.9,286047001.0,N
1510662995.7,286047000.5,N
1510663015.5,286046998.5,N
1510663035.3,286046995.5,N
1510663055.2,286046997.1,N
1510663075.0,286046995.9,N
1510663075.9,286046995.9,N
1510663095.7,286046994.4,N
1510663115.6,286046998.0,N
1510663135.4,286046995.8,N
1510663155.2,286046994.2,N
1510663175.1,286046993.2,N
1510663176.0,286046993.2,N
1510663195.8,286046991.4,N
1510663215.6,286046992.7,N
1510663235.5,286046991.9,N
1510663255.3,286046992.0,N
1510663275.1,286046991.8,N
1510663295.9,286046992.4,N
1510663315.7,286046995.2,N
1510663335.5,286046998.8,N
1510663355.4,286046997.4,N
1510663375.2,286046997.7,N
1510663395.0,286046995.5,N
1510663395.9,286046995.5,N
1510663415.7,286046993.8,N
1510663435.6,286046990.1,Y
1510663455.4,286046995.2,P
1510663475.2,286046996.0,P
1510663495.1,286046994.3,P
1510663496.0,286046994.3,Y
1510663515.8,286047004.4,P
1510663535.7,286047001.5,N
1510663555.5,286047002.7,N
1510663575.3,286046998.2,N
1510663595.1,286047000.2,N
1510663615.9,286046998.4,N
1510663635.7,286046998.1,N
1510663655.5,286047000.8,N
1510663675.4,286047000.9,N
1510663695.2,286046998.8,N
1510663715.0,286046996.7,N
1510663715.9,286046996.7,N
1510663735.8,286046999.2,N
1510663755.6,286047000.6,N
1510663775.4,286047001.3,N
1510663795.3,286047002.1,N
1510663815.1,286046998.8,N
1510663816.0,286046998.8,N
1510663835.8,286047000.0,N
1510663855.7,286047002.1,N
1510663875.5,286047000.9,N
1510663895.3,286047002.2,N
1510663915.2,286046998.5,N
1510663935.9,286046994.3,N
1510663955.7,286046997.3,N
1510663975.5,286046997.2,N
1510663995.4,286046995.0,N
1510664015.2,286046997.6,N
1510664035.0,286046997.8,N
1510664035.9,286046997.8,N
1510664055.8,286046995.6,N
1510664075.6,286046991.9,Y
1510664095.4,286046994.6,P
1510664115.3,286046996.3,N
1510664135.1,286046996.4,N
1510664155.8,286046993.7,Y
1510664175.7,286046999.2,P
1510664195.5,286046993.0,P
1510664215.3,286046992.6,N
1510664235.2,286046992.0,N
1510664255.9,286046992.9,N
1510664275.7,286046994.5,N
1510664295.6,286046993.2,N
1510664315.4,286046994.8,N
1510664335.2,286046994.5,N
1510664355.1,286046997.9,N
1510664356.0,286046997.9,N
1510664375.8,286047000.7,N
1510664395.6,286047001.1,N
